GFSGBSN_500_rhum_024.txt.gz
RH
62 58 54 53 54 53 49 47 45 42 38 38 38 39 34 31 32 25 23 26 20 12 13 23 29 41 48 44 52 55 39 30 36 39 47 73 87 80 79 78 68 69 95 92 71 100 84
69 62 59 56 55 54 53 49 48 48 42 41 41 40 37 33 35 24 25 25 19 11 14 21 36 46 43 37 50 52 43 33 39 43 51 66 90 67 94 97 80 54 63 63 58 82 92
80 74 68 61 57 52 53 51 48 49 44 44 42 42 40 37 38 25 26 25 17 11 18 21 46 43 36 34 36 60 40 37 43 54 73 58 75 63 70 75 97 85 71 56 56 96 98
86 83 79 73 68 63 56 56 53 48 45 46 45 44 41 35 40 27 28 24 16 13 21 25 45 46 43 39 53 57 43 54 54 54 88 72 54 59 58 61 68 85 79 96 96 87 62
91 92 89 81 70 63 61 57 52 47 46 45 44 44 34 31 40 31 31 23 14 14 21 23 39 40 43 49 53 55 51 56 52 89 34 42 52 52 58 85 99 97 96 93 82 84 82
94 92 94 90 80 72 65 61 51 46 46 44 44 42 29 29 36 35 33 21 14 15 17 27 30 38 46 54 54 67 59 49 65 58 60 44 79 94 97 99 95 91 94 97 100 64 97
100 98 92 95 92 87 78 69 60 50 48 47 44 36 29 25 32 36 31 20 14 15 16 26 28 28 44 53 53 65 60 51 82 94 77 63 99 100 84 92 99 95 94 94 93 64 51
94 95 97 94 93 91 88 82 67 62 56 51 42 39 28 22 25 36 30 18 15 16 15 20 42 40 50 54 51 54 65 58 78 89 96 82 87 98 94 93 98 100 91 93 75 25 50
86 87 86 92 95 88 83 82 74 62 54 48 42 39 32 24 24 35 27 19 15 18 13 21 38 62 54 54 46 54 62 64 80 89 91 71 94 88 94 98 88 96 97 93 94 26 18
72 72 79 74 72 76 70 58 50 54 53 43 40 40 38 30 29 34 25 18 16 16 16 21 38 51 33 32 25 86 68 83 98 97 90 95 94 83 100 94 98 98 74 90 99 92 47
30 42 60 61 73 70 74 55 42 37 41 36 32 37 38 32 36 29 22 19 17 17 27 30 35 22 23 20 25 48 66 98 93 98 92 96 98 100 98 98 77 94 79 66 90 79 78
27 30 28 29 44 56 69 75 70 56 50 42 28 22 25 28 34 34 26 21 17 21 35 32 31 24 32 25 22 46 68 68 80 83 83 93 65 96 95 96 64 54 36 36 70 93 80
12 20 25 25 26 30 37 42 38 42 61 56 32 23 16 19 29 33 28 20 24 14 28 37 17 23 27 36 33 82 54 42 77 99 79 92 68 67 69 52 40 33 48 64 99 93 84
5 6 8 15 22 21 25 28 28 29 30 28 25 21 17 12 23 37 26 29 26 21 23 44 19 19 34 49 47 46 43 36 40 73 100 82 83 98 64 44 96 40 66 97 96 89 92
4 5 4 5 6 9 14 19 20 18 20 18 15 13 15 6 24 38 27 30 25 26 25 43 26 42 48 98 44 33 34 76 69 68 94 69 87 88 81 20 37 97 78 96 90 94 46
2 3 5 5 4 4 5 6 11 11 12 15 10 9 6 4 26 35 25 25 30 24 39 72 70 73 86 95 19 20 22 34 95 84 100 91 96 87 65 20 30 28 27 21 26 20 16
1 2 2 3 4 4 4 4 5 6 7 7 6 8 4 3 20 31 18 22 34 23 23 72 50 72 91 74 15 19 28 74 76 87 37 63 97 98 19 24 26 23 26 20 23 31 19
1 1 1 2 2 2 3 3 3 4 5 5 5 8 8 4 10 21 20 24 32 20 12 15 77 100 69 99 33 68 66 99 28 19 18 23 25 28 18 19 15 16 26 19 13 16 12
2 1 1 1 2 2 2 2 2 3 3 5 4 4 6 7 6 14 24 28 30 15 12 13 22 54 26 47 72 22 82 65 25 19 16 13 10 9 10 47 10 8 10 13 28 15 17
38 7 1 1 1 1 2 2 2 2 3 4 3 3 18 15 5 18 26 24 27 10 13 17 26 27 15 13 10 11 15 13 13 13 14 14 13 14 11 26 82 92 38 12 20 17 26
34 33 13 1 1 1 1 2 2 2 2 3 3 3 5 10 7 14 26 24 32 10 11 21 26 18 13 11 12 14 13 8 8 8 8 8 9 12 11 21 76 99 63 24 23 24 27
36 32 26 8 1 1 1 1 2 2 2 2 3 3 3 5 17 29 24 23 28 12 10 18 23 15 12 13 14 10 8 7 20 24 16 10 9 8 11 18 20 27 23 22 26 30 31
44 31 28 12 2 2 1 1 2 2 4 2 3 3 6 2 17 41 23 23 37 14 12 26 20 14 15 19 11 7 9 69 36 33 30 18 12 11 13 18 24 23 30 28 28 32 33
42 39 27 8 3 2 2 1 2 3 3 2 3 3 4 6 10 15 30 25 53 15 71 35 20 17 17 12 9 8 12 30 37 30 29 24 16 14 14 24 24 27 29 30 26 27 29
41 38 19 54 9 2 2 2 2 18 33 3 9 25 40 9 38 42 30 30 58 20 100 44 18 13 13 12 8 8 11 26 37 34 24 23 21 17 18 25 24 22 21 24 24 28 21
46 46 75 74 34 4 3 5 77 98 53 19 20 11 69 54 46 39 28 29 49 26 98 29 30 17 15 10 10 8 8 9 17 33 30 25 21 20 24 25 22 20 19 16 12 12 6
65 68 90 99 72 7 4 72 100 52 33 12 84 87 99 53 88 71 46 26 47 18 88 30 20 16 14 13 13 14 13 12 9 9 9 15 16 16 14 9 7 7 8 9 8 9 9
70 84 100 90 70 7 4 60 94 92 72 51 86 75 66 61 38 75 74 44 39 43 29 23 19 17 15 13 14 13 15 13 13 13 12 11 11 11 10 10 10 10 8 9 9 8 7
74 75 49 50 17 4 10 100 96 100 76 83 90 68 86 98 87 56 63 56 37 27 16 26 21 22 18 16 15 21 16 13 12 12 11 10 10 10 11 10 8 8 8 7 6 6 6

GFSGBSN_500_rhum_027.txt.gz
RH
69 63 58 55 59 57 53 54 52 52 51 48 46 45 41 43 40 35 31 27 22 20 13 8 9 14 28 38 35 40 41 40 30 35 44 60 83 92 85 84 79 79 92 98 99 71 78
87 82 75 70 69 64 61 60 58 57 55 52 50 47 44 46 42 38 33 28 24 19 11 8 12 16 33 33 30 34 51 42 35 40 44 59 80 83 87 80 80 92 95 95 99 56 97
96 96 96 90 76 70 66 61 62 60 57 56 52 46 48 51 45 40 30 32 28 19 11 9 15 14 30 37 32 42 45 37 39 44 52 55 63 67 79 81 94 100 84 79 94 79 62
96 94 93 96 95 93 82 67 64 62 58 58 53 50 52 52 48 40 28 33 29 21 10 10 16 14 23 32 37 38 35 40 52 52 63 70 63 56 68 60 81 67 66 63 95 81 92
98 97 97 97 96 95 95 91 78 70 63 60 58 52 54 54 47 35 26 30 25 21 10 10 16 16 22 25 31 40 53 41 52 75 67 71 52 54 59 62 52 74 93 88 79 88 83
96 96 96 96 96 96 95 96 92 86 69 64 59 53 58 55 46 31 25 26 24 20 11 10 15 18 22 21 22 38 56 39 54 55 56 43 65 51 57 69 81 87 98 81 96 96 90
100 95 96 96 97 97 96 96 96 95 82 68 57 54 56 53 41 30 24 19 22 20 12 9 11 15 29 25 27 32 42 52 52 74 78 43 75 65 68 98 80 90 96 98 91 100 60
99 97 99 96 96 97 96 96 95 95 91 80 76 64 58 58 40 31 23 19 25 16 12 9 11 16 22 39 37 35 39 50 54 76 95 60 81 72 76 97 93 80 90 100 81 76 44
94 98 96 96 93 95 98 99 94 96 94 94 88 77 69 74 50 31 25 22 25 21 13 9 12 18 27 29 38 35 38 52 52 65 92 78 62 82 95 80 96 94 94 98 95 68 43
38 53 88 91 99 95 94 96 98 94 96 95 89 80 82 76 51 37 26 27 32 22 14 13 16 29 22 21 24 22 40 52 61 80 98 94 97 92 81 79 98 80 100 82 62 45 30
18 29 36 52 83 95 97 97 96 96 97 95 90 88 72 55 49 42 37 36 30 20 15 12 18 24 11 19 21 26 36 58 97 78 76 71 88 57 84 87 89 96 94 82 87 97 94
12 14 21 31 36 44 71 91 94 93 96 94 85 64 75 65 45 53 40 36 31 22 21 16 13 22 12 25 18 46 59 72 95 65 82 95 82 59 65 86 98 77 74 51 79 57 81
6 9 12 17 25 32 32 36 77 90 85 90 75 45 45 50 26 41 37 35 31 25 28 19 16 18 16 28 18 29 58 74 57 76 62 70 91 97 92 84 84 85 39 42 37 74 74
3 4 6 10 13 18 26 29 29 42 95 91 71 34 31 24 22 18 23 29 26 24 26 28 17 13 19 27 32 39 75 74 49 50 57 86 90 66 86 88 54 63 37 54 69 75 69
2 2 3 5 10 9 14 19 24 24 29 90 94 58 42 28 41 19 17 20 20 30 37 34 24 14 19 25 42 48 97 57 46 39 46 62 82 91 87 88 72 80 68 66 92 83 86
1 1 2 2 4 7 9 10 14 20 20 38 85 89 63 19 57 29 26 26 19 35 41 35 26 18 17 27 54 38 43 44 91 88 94 90 75 84 99 79 40 40 95 76 48 25 15
3 1 1 2 2 3 5 7 5 10 14 14 44 65 20 11 24 38 48 33 20 37 41 35 43 31 20 36 60 59 28 51 75 100 98 91 54 87 67 66 37 36 30 30 28 26 17
27 7 2 1 1 2 3 4 5 5 7 9 16 54 16 12 28 45 51 28 25 39 38 25 27 39 16 84 70 22 22 76 64 89 91 87 37 28 28 27 31 27 25 57 32 27 16
57 34 13 2 1 1 2 3 3 4 5 6 13 12 6 7 17 44 40 26 27 34 37 22 14 22 13 100 97 76 79 97 99 77 19 23 15 19 26 24 13 17 15 12 11 8 10
56 60 40 14 1 1 1 2 2 3 4 4 4 6 5 5 16 28 38 10 22 31 37 25 14 20 21 87 96 99 52 82 42 32 23 22 19 14 12 11 16 10 24 83 15 10 14
57 56 35 13 3 1 1 2 2 2 3 4 4 5 6 13 20 18 23 8 28 30 29 27 10 18 28 22 69 73 31 16 12 12 14 12 11 11 11 11 13 11 34 99 36 17 18
63 50 43 25 5 1 1 1 2 2 3 4 4 4 4 8 12 11 15 7 30 29 37 25 8 16 26 20 18 21 14 13 13 11 8 7 8 7 7 8 10 11 21 46 49 34 32
80 61 44 31 19 2 2 1 1 2 3 3 3 4 3 5 12 14 11 8 23 30 37 26 13 18 24 19 16 14 14 14 10 16 18 24 23 16 12 9 10 14 22 31 34 37 38
79 76 48 34 31 3 1 1 1 2 3 2 3 3 3 4 11 15 19 13 27 27 28 32 13 19 21 16 13 15 15 12 10 74 61 33 30 23 17 11 12 19 26 30 33 29 29
84 93 76 39 32 22 1 2 2 2 3 3 3 3 3 4 9 5 10 33 35 31 34 38 11 17 23 17 21 73 36 9 15 35 48 48 46 37 19 14 14 22 25 29 31 28 26
91 81 62 45 36 29 5 1 2 2 3 3 3 3 3 5 10 6 5 42 39 37 45 35 14 25 30 49 30 47 9 10 12 22 30 28 26 20 20 18 15 20 22 21 22 18 18
61 52 63 42 35 30 11 2 2 2 5 3 3 3 4 7 15 18 10 17 42 43 29 37 26 54 36 23 16 12 9 10 10 12 18 27 24 20 17 16 17 17 16 12 8 10 10
67 83 49 40 28 17 13 3 2 3 4 3 3 3 8 20 71 38 45 58 67 36 28 39 49 92 61 44 48 12 12 12 11 12 10 9 10 12 11 10 10 10 9 10 10 9 8
88 53 40 81 92 49 24 2 2 9 9 4 5 29 72 84 91 82 89 70 48 34 28 45 55 83 36 24 17 13 17 16 16 13 13 12 12 12 11 11 10 8 8 7 8 9 8

GFSGBSN_500_rhum_033.txt.gz
RH
87 73 65 67 68 52 46 43 42 41 40 38 38 38 40 44 48 51 51 50 47 47 40 27 18 19 10 9 13 16 23 25 32 31 33 41 56 50 70 70 87 100 100 64 73 86 69
76 81 92 71 74 75 76 65 59 55 51 45 46 47 50 52 56 56 54 53 50 51 40 25 19 19 10 11 13 17 25 25 26 34 33 45 52 71 79 56 87 100 92 89 72 66 72
71 78 80 89 85 74 81 80 84 75 60 58 55 55 58 56 61 60 59 55 55 56 39 26 19 18 11 11 15 16 26 18 22 34 44 45 70 85 91 79 73 97 81 94 82 51 62
67 68 81 85 91 96 84 87 77 78 79 72 69 68 69 66 65 64 61 60 58 58 38 26 20 16 11 13 17 18 18 21 38 51 56 54 58 75 99 87 83 95 78 91 73 63 68
56 62 74 88 84 84 100 96 89 88 83 86 85 84 87 84 76 68 62 62 62 59 35 25 19 16 12 12 17 24 18 24 36 46 40 52 55 69 98 99 87 78 56 71 66 70 87
67 65 70 75 89 84 88 92 99 94 83 98 96 96 96 94 89 78 68 66 71 57 32 22 19 18 14 10 17 24 29 27 32 62 52 54 57 68 81 93 68 68 57 59 65 74 92
67 78 80 83 88 89 79 89 90 99 98 96 93 97 93 97 97 94 85 76 76 51 30 23 20 18 13 11 14 26 30 30 32 56 38 39 47 58 60 70 70 64 70 69 86 78 68
17 36 73 92 88 92 89 79 85 90 97 89 97 98 96 96 96 96 86 78 82 52 37 26 21 21 16 13 16 21 22 29 32 53 42 44 58 55 54 59 88 62 75 88 73 60 73
10 12 18 35 74 86 86 88 86 84 93 90 91 96 95 96 96 96 88 81 86 62 41 26 23 22 18 16 19 17 17 23 40 48 46 39 53 74 76 91 97 99 90 86 88 93 50
7 8 10 12 19 34 68 84 88 89 82 85 90 97 96 95 96 94 89 91 94 85 52 33 27 22 18 18 20 13 14 18 48 41 49 46 47 66 88 82 73 96 94 82 77 78 92
5 6 8 8 11 16 23 40 70 84 87 92 95 99 96 89 95 92 94 98 96 90 57 38 30 23 19 19 16 11 15 15 37 33 46 49 48 65 86 70 76 81 70 68 70 79 96
4 4 5 7 8 12 17 22 32 63 86 91 98 100 96 100 97 91 88 97 93 75 59 41 33 26 20 20 16 8 13 15 29 34 25 40 48 57 76 66 74 76 73 73 79 77 75
3 4 4 4 6 8 13 16 23 32 64 89 100 100 97 98 92 83 94 96 81 60 58 44 35 28 22 21 17 9 14 19 31 30 26 45 56 66 64 61 69 68 62 62 78 76 65
2 2 3 4 4 6 8 13 18 22 29 59 92 100 100 100 94 88 92 95 68 59 71 45 37 30 24 24 20 10 10 20 31 30 58 48 52 59 63 73 80 81 63 56 58 65 56
21 7 2 3 3 4 5 8 12 19 23 26 46 79 98 87 82 96 68 72 49 65 64 48 42 35 28 24 22 12 10 22 35 45 45 56 50 69 84 93 84 80 53 65 61 46 42
37 40 16 3 2 3 3 5 8 12 17 23 25 33 68 100 95 98 79 56 53 73 49 57 49 37 30 30 24 14 11 20 25 49 42 53 77 78 77 77 73 61 64 64 57 48 50
57 49 47 11 3 2 3 3 5 7 11 16 20 24 28 70 97 84 60 49 53 82 60 60 53 35 28 28 28 13 18 35 38 58 54 37 45 73 77 71 88 85 86 74 47 81 59
100 42 55 52 8 3 2 3 3 4 7 9 15 18 20 19 51 61 49 55 61 92 94 60 43 32 28 30 30 16 20 37 46 63 37 37 35 39 66 82 74 64 82 79 37 41 64
97 92 43 68 62 12 2 2 3 3 4 6 9 13 16 9 26 39 51 60 74 49 54 35 30 32 28 35 34 19 24 27 31 42 38 40 33 36 52 69 69 51 48 35 33 26 18
99 100 71 44 73 54 13 2 2 3 3 4 6 9 13 13 18 23 50 58 64 62 32 23 27 30 27 36 34 25 15 26 20 25 40 45 47 66 56 60 87 84 55 32 24 20 19
89 100 100 56 58 69 41 8 2 2 3 4 4 6 7 11 10 12 28 50 70 62 53 24 28 28 28 33 38 26 21 19 10 15 16 24 51 64 30 25 24 25 23 15 11 12 11
100 100 100 84 55 59 46 29 8 2 2 3 3 4 5 6 13 14 18 34 60 52 47 49 41 30 32 35 41 31 15 27 24 13 16 42 56 43 25 23 20 15 15 15 10 11 11
100 100 100 82 51 59 68 41 23 10 5 2 3 4 4 5 9 13 8 17 48 73 77 83 49 30 26 38 57 38 23 62 98 84 20 23 17 14 13 15 14 10 9 10 11 9 12
100 100 100 99 68 66 70 56 28 27 9 2 3 3 4 4 6 3 10 17 39 86 89 52 36 39 46 67 53 40 20 73 96 96 52 18 12 15 14 14 12 17 21 21 15 12 10
100 100 100 100 100 98 68 57 41 33 21 5 2 4 4 4 4 7 8 16 26 77 85 36 37 39 75 74 63 63 25 35 84 80 46 16 12 14 28 52 55 44 34 27 18 13 15
100 100 100 100 100 83 66 69 48 28 30 8 3 4 4 3 4 8 10 15 20 58 72 42 37 46 63 66 79 60 32 38 25 35 32 13 12 15 27 35 42 46 56 40 24 16 17
100 100 100 100 98 74 66 64 39 33 31 15 3 3 5 4 4 8 9 12 17 35 72 28 30 32 37 56 68 55 43 36 31 42 28 16 21 23 10 16 21 25 30 35 26 20 34
100 100 100 100 70 66 64 62 45 33 27 20 3 3 5 4 5 6 9 11 15 23 53 34 34 36 30 37 50 68 84 22 22 30 21 26 36 9 11 16 19 26 28 25 28 28 36
100 100 100 100 87 59 50 46 44 36 30 16 12 4 4 5 20 9 8 10 16 13 9 20 35 35 30 34 49 77 61 39 18 17 19 28 28 9 11 11 12 16 18 19 19 20 18

GFSGBSN_500_rhum_036.txt.gz
RH
62 70 74 75 76 67 74 71 56 48 43 41 44 43 41 45 37 36 33 37 43 48 52 51 47 34 21 20 14 10 13 14 16 20 28 39 46 68 53 48 93 97 96 88 87 99 90
65 54 58 70 72 74 79 71 76 71 68 53 48 48 50 44 43 41 43 45 48 51 56 54 51 35 22 22 14 10 14 14 21 28 35 37 57 75 87 61 96 71 94 89 89 99 98
68 66 55 56 64 73 75 73 83 76 79 80 84 66 64 63 58 57 54 50 53 57 58 56 66 36 21 20 15 10 14 16 21 33 46 54 55 69 91 85 73 81 79 88 77 95 95
63 69 73 63 66 67 61 74 82 76 89 81 91 95 95 81 71 67 63 63 56 60 62 56 64 36 23 21 16 11 12 22 23 24 39 52 54 56 61 88 83 64 94 90 87 67 65
59 69 70 70 68 66 72 64 67 88 78 97 93 97 94 96 95 84 82 73 69 64 64 59 68 33 23 22 17 11 10 23 28 23 37 50 54 56 54 80 100 73 83 81 100 70 68
47 54 66 70 69 72 64 59 70 73 95 82 97 98 94 93 93 91 92 92 88 70 68 61 67 35 27 23 17 12 11 22 27 23 34 36 51 48 54 80 98 88 70 68 78 81 83
21 23 23 46 75 76 75 70 69 80 84 99 92 92 97 96 87 83 96 96 96 88 72 72 66 35 29 24 18 14 15 19 24 30 39 41 44 53 52 68 81 87 74 58 58 78 72
8 9 14 18 19 48 84 87 90 82 89 98 97 96 91 93 96 97 88 97 98 97 91 86 62 31 24 24 19 15 15 17 22 45 49 44 48 60 58 59 74 83 71 70 63 70 80
9 8 8 8 11 13 21 59 100 100 98 100 100 97 93 90 98 97 96 96 99 94 94 96 60 36 27 24 20 17 15 16 21 52 50 35 48 48 52 61 68 72 61 85 88 64 63
5 6 7 8 8 9 12 17 31 74 100 99 99 100 90 90 88 92 94 94 92 94 88 88 74 42 29 26 20 17 14 12 23 46 47 33 42 46 64 67 88 90 66 76 65 68 54
4 5 4 5 7 8 10 12 18 28 43 78 100 100 92 84 90 86 89 92 95 93 85 94 68 46 34 29 22 19 15 12 20 40 44 39 52 42 51 73 75 73 61 55 58 60 52
2 2 2 4 5 6 8 10 15 21 31 46 68 95 98 97 99 92 85 90 94 95 76 81 66 53 37 30 24 19 15 9 16 27 33 44 47 47 53 61 66 56 59 60 56 58 59
11 6 4 2 3 5 6 9 12 18 24 33 56 73 92 89 76 86 90 86 87 74 84 73 56 51 37 31 24 20 18 8 19 24 32 31 36 53 59 57 58 59 65 60 63 70 54
43 33 28 11 4 2 4 6 9 15 24 27 37 68 80 86 57 87 90 87 74 61 83 66 61 51 36 33 26 21 20 8 17 24 36 31 37 49 65 62 60 55 56 63 67 65 61
85 68 34 38 12 4 2 4 6 10 18 25 25 38 66 86 38 85 100 86 55 59 84 80 59 56 45 37 29 22 21 11 16 23 32 37 50 60 71 65 63 66 71 74 69 58 58
100 96 84 25 39 12 3 3 4 6 12 18 23 24 40 56 22 87 94 67 59 72 82 86 70 58 46 39 34 26 22 16 16 25 29 39 58 70 70 68 68 68 74 71 53 44 41
78 100 100 73 31 31 9 3 3 4 7 13 15 21 33 52 14 66 60 54 61 73 93 92 75 70 54 44 39 27 25 17 16 28 36 54 45 72 70 66 82 84 68 62 60 56 53
50 93 100 100 47 37 39 5 3 4 5 8 12 18 22 38 21 46 34 53 62 67 74 92 80 68 52 48 41 29 28 19 20 26 38 45 58 57 61 99 84 64 56 68 67 58 69
79 96 100 99 100 62 40 34 4 3 4 5 10 14 15 25 27 23 20 46 57 77 69 96 78 68 52 54 45 32 31 21 18 28 30 45 44 43 51 56 57 53 67 57 54 64 53
48 70 97 100 92 100 68 34 22 4 4 4 6 10 11 14 21 24 20 30 50 75 85 91 71 59 54 48 39 37 33 24 21 30 41 55 40 41 43 57 69 42 53 52 38 26 21
48 97 83 100 85 100 88 52 41 10 3 3 5 7 11 14 16 13 12 16 47 63 93 90 94 78 62 42 37 39 37 29 23 27 31 33 31 44 58 98 73 55 61 74 55 31 22
73 75 88 100 78 100 96 63 60 42 8 3 3 5 8 10 14 15 10 8 21 61 89 86 80 82 51 39 35 49 47 41 23 28 29 20 18 27 55 71 48 18 20 21 18 12 8
86 70 100 93 79 100 100 70 97 100 42 5 3 4 6 8 11 13 7 9 14 39 79 96 59 26 30 37 46 70 48 51 31 45 30 16 13 46 67 70 39 12 12 12 10 10 9
87 96 100 100 100 100 100 83 100 94 45 29 5 3 4 6 8 6 7 10 12 25 62 96 74 32 45 85 67 68 74 62 45 28 56 74 54 46 37 30 15 12 11 16 25 21 18
98 100 100 99 100 100 100 82 65 66 66 42 15 3 3 4 6 8 8 9 11 16 26 72 90 63 44 74 70 56 64 69 58 39 60 78 97 56 42 18 13 11 22 50 52 37 26
92 85 96 100 100 100 100 86 64 60 71 84 20 5 3 4 4 6 7 8 9 15 16 42 98 46 55 95 99 80 72 66 70 35 25 77 88 78 47 15 8 10 20 23 34 19 35
70 100 100 100 100 99 100 75 75 94 96 55 24 10 3 3 4 4 6 7 9 12 17 18 92 94 70 89 88 75 91 97 70 41 31 45 82 59 40 15 8 18 10 17 21 24 28
100 100 100 100 100 100 100 89 92 90 82 48 32 16 6 3 3 4 5 6 8 11 17 17 79 93 85 81 72 76 82 96 99 59 31 35 46 67 48 18 22 17 11 16 22 21 22
100 100 100 100 100 100 100 100 100 80 63 47 38 24 9 7 3 3 4 5 7 10 12 15 68 79 56 73 75 81 76 83 88 55 43 32 23 42 40 34 37 10 12 13 16 22 23